This is the latest recevied weather packets stored in our database for station/object SR9WXZ. If no packets are shown the sender has not sent any weather packets the latest 1 day(s).
| Time | Temp. | Humidity | Pressure | Rain* | Wind** | Luminosity | Snow |
|---|---|---|---|---|---|---|---|
| 1778024163 | 12.22° C | 100% | 0 hPa | - | 0.89 m/s, 190° | - | - |
| 1778023863 | 11.67° C | 100% | 0 hPa | - | 1.34 m/s, 186° | - | - |
| 1778023563 | 11.67° C | 100% | 0 hPa | - | 1.79 m/s, 200° | - | - |
| 1778023263 | 11.67° C | 100% | 0 hPa | - | 1.79 m/s, 198° | - | - |
| 1778022963 | 12.22° C | 100% | 0 hPa | - | 0.89 m/s, 186° | - | - |
| 1778022663 | 11.67° C | 100% | 0 hPa | - | 1.34 m/s, 188° | - | - |
| 1778022362 | 13.33° C | 100% | 0 hPa | - | 0.89 m/s, 298° | - | - |
| 1778021759 | 13.33° C | 100% | 0 hPa | - | 1.34 m/s, 16° | - | - |
| 1778021459 | 13.89° C | 100% | 0 hPa | - | 1.34 m/s, 16° | - | - |
| 1778021157 | 13.89° C | 100% | 0 hPa | - | 1.34 m/s, 84° | - | - |
| 1778020857 | 13.89° C | 100% | 0 hPa | - | 0.89 m/s, 97° | - | - |
| 1778020557 | 13.89° C | 100% | 0 hPa | - | 1.34 m/s, 95° | - | - |
| 1778020257 | 13.89° C | 100% | 0 hPa | - | 0.89 m/s, 108° | - | - |
| 1778019957 | 13.89° C | 100% | 0 hPa | - | 0.89 m/s, 103° | - | - |
| 1778019656 | 13.89° C | 100% | 0 hPa | - | 0.89 m/s, 97° | - | - |
| 1778019356 | 14.44° C | 100% | 0 hPa | - | 0.89 m/s, 97° | - | - |
| 1778019056 | 14.44° C | 100% | 0 hPa | - | 0.89 m/s, 97° | - | - |
| 1778018756 | 15° C | 100% | 0 hPa | - | 0.89 m/s, 97° | - | - |
| 1778018453 | 13.89° C | 100% | 0 hPa | - | 1.34 m/s, 97° | - | - |
| 1778018152 | 13.89° C | 100% | 0 hPa | - | 1.79 m/s, 85° | - | - |
| 1778017852 | 13.89° C | 100% | 0 hPa | - | 1.79 m/s, 92° | - | - |
| 1778017550 | 14.44° C | 100% | 0 hPa | - | 1.79 m/s, 100° | - | - |
| 1778017250 | 15° C | 100% | 0 hPa | - | 0.89 m/s, 120° | - | - |
| 1778016949 | 16.67° C | 100% | 0 hPa | - | 1.34 m/s, 156° | - | - |
| 1778016649 | 17.78° C | 100% | 0 hPa | - | 1.34 m/s, 151° | - | - |
* Rain since midnight (hover to see other rain measurements)
** Current wind speed in m/s (hover to see current wind gust speed)